Regional Weather Roundup
Issued by NWS

Home | Current Version | Previous Version | Graphics & Text | Print | Product List | Glossary On
Versions: 1 2 3 4 5 6 7 8 9 10 11 12 13 14 15 16 17 18 19 20 21 22 23 24 25 26 27 28 29 30 31 32 33 34 35 36 37 38 39 40 41 42 43 44 45 46 47 48 49 50
000
ASUS44 KMEG 100910
RWRTN
TENNESSEE HOURLY STATE WEATHER ROUNDUP
NATIONAL WEATHER SERVICE MEMPHIS TN
300 AM CST SAT DEC 10 2016

TNZ002-004-019-021-049-052-054-088>092-101000-
WEST TENNESSEE

CITY           SKY/WX    TMP DP  RH WIND       PRES   REMARKS
MEMPHIS INTL   CLEAR     26  18  71 E5        30.57F WCI  20
NWS MEMPHIS      N/A     21 N/A N/A MISG        N/A
JACKSON        CLEAR     19  16  88 CALM      30.59R
DYERSBURG      CLEAR     21  19  93 CALM      30.59S
UNION CITY     CLEAR     18  16  93 CALM      30.58F
PARIS          CLEAR     14  12  92 CALM      30.58S
HUNTINGDON     CLEAR     18  16  93 CALM      30.58R
LEXINGTON      CLEAR     18  16  93 CALM      30.56S
$$

TNZ008-025-027-028-033-062-065-066-101000-
NORTH MIDDLE TENNESSEE

CITY           SKY/WX    TMP DP  RH WIND       PRES   REMARKS
NASHVILLE      CLEAR     23  15  71 CALM      30.58F
PORTLAND       CLEAR     18  16  93 CALM      30.56F
CLARKSVILLE    CLEAR     19  14  81 CALM      30.59S
SMYRNA         CLEAR     20  17  88 CALM      30.59F
GALLATIN       CLEAR     18  16  93 CALM      30.61S
CROSSVILLE     CLOUDY    16  13  88 CALM      30.48S
$$

TNZ061-075-076-078-094-096-097-101000-
SOUTH MIDDLE TENNESSEE

CITY           SKY/WX    TMP DP  RH WIND       PRES   REMARKS
FAYETTEVILLE   PTCLDY    23  18  80 N6        30.53S WCI  16
TULLAHOMA      CLEAR     16  10  79 CALM      30.53R
WINCHESTER     CLEAR     16  16 100 CALM      30.53F
MCMINNVILLE    CLEAR     18  14  86 CALM        N/A
COLUMBIA       CLEAR     19  19 100 CALM      30.55S
SHELBYVILLE    CLEAR     18  18 100 CALM      30.56F
$$

TNZ017-018-042-046-047-101000-
NORTHEAST TENNESSEE

CITY           SKY/WX    TMP DP  RH WIND       PRES   REMARKS
TRI CITIES     CLEAR     16  12  84 CALM      30.49F
ELIZABETHTON   CLEAR     16  14  93 CALM      30.49F
$$

TNZ012-013-036-069-073-074-101000-
CENTRAL EAST TENNESSEE

CITY           SKY/WX    TMP DP  RH WIND       PRES   REMARKS
KNOXVILLE      CLEAR     23  16  74 CALM      30.52F
OAK RIDGE      CLEAR     21  16  81 CALM      30.55F
DOWNTOWN KNOXV CLEAR     21  21 100 CALM      30.54F
GATLINBURG     CLEAR     16  12  86 CALM      30.52F
MORRISTOWN     CLEAR     19  16  86 CALM      30.49F
JACKSBORO      CLEAR     16  16 100 CALM      30.55F
$$

TNZ083-085-099-101000-
SOUTHEAST TENNESSEE

CITY           SKY/WX    TMP DP  RH WIND       PRES   REMARKS
CHATTANOOGA    CLEAR     25  17  72 CALM      30.54F
$$

SKY/WX REPORTED AS FAIR MEANS FEW OR NO CLOUDS BELOW
12 THOUSAND FEET.




USA.gov is the U.S. government's official web portal to all federal, state and local government web resources and services.